TimeMST,TemperatureF,Dew PointF,Humidity,Sea Level PressureIn,VisibilityMPH,Wind Direction,Wind SpeedMPH,Gust SpeedMPH,PrecipitationIn,Events,Conditions,WindDirDegrees,DateUTC
12:53 AM,30.0,21.0,69,30.03,10.0,South,8.1,-,0.00,,Overcast,190,2013-02-16 07:53:00
1:53 AM,30.9,21.0,67,30.00,10.0,South,5.8,-,0.00,,Overcast,190,2013-02-16 08:53:00
2:53 AM,30.9,21.9,69,29.98,10.0,West,6.9,-,N/A,,Overcast,270,2013-02-16 09:53:00
3:53 AM,33.1,25.0,72,29.96,10.0,WNW,6.9,-,N/A,,Overcast,290,2013-02-16 10:53:00
4:53 AM,35.1,27.0,72,29.96,10.0,WNW,15.0,-,N/A,,Overcast,300,2013-02-16 11:53:00
5:53 AM,32.0,26.1,79,29.98,10.0,WNW,11.5,-,N/A,,Clear,300,2013-02-16 12:53:00
6:53 AM,33.1,26.1,75,29.99,10.0,WNW,13.8,-,N/A,,Clear,300,2013-02-16 13:53:00
7:53 AM,34.0,26.1,73,29.99,10.0,WNW,15.0,-,N/A,,Scattered Clouds,290,2013-02-16 14:53:00
8:53 AM,37.9,27.0,65,29.99,10.0,WNW,16.1,-,N/A,,Partly Cloudy,290,2013-02-16 15:53:00
9:53 AM,42.1,28.0,58,29.98,10.0,NW,16.1,21.9,N/A,,Partly Cloudy,310,2013-02-16 16:53:00
10:53 AM,45.0,28.0,52,29.97,10.0,NNW,17.3,-,N/A,,Clear,330,2013-02-16 17:53:00
11:53 AM,46.0,28.0,50,29.96,10.0,WNW,13.8,-,N/A,,Clear,300,2013-02-16 18:53:00
12:53 PM,48.9,28.0,44,29.94,10.0,NW,13.8,-,N/A,,Clear,310,2013-02-16 19:53:00
1:53 PM,48.9,28.0,44,29.93,10.0,WNW,12.7,19.6,N/A,,Clear,300,2013-02-16 20:53:00
2:53 PM,48.9,28.0,44,29.92,10.0,WNW,12.7,-,N/A,,Clear,300,2013-02-16 21:53:00
3:53 PM,48.0,27.0,44,29.91,10.0,NW,10.4,-,N/A,,Clear,320,2013-02-16 22:53:00
4:53 PM,42.1,27.0,55,29.91,10.0,WNW,6.9,-,N/A,,Clear,300,2013-02-16 23:53:00
5:53 PM,36.0,26.1,67,29.92,10.0,Calm,Calm,-,N/A,,Clear,0,2013-02-17 00:53:00
6:53 PM,28.9,21.9,75,29.91,10.0,Calm,Calm,-,N/A,,Clear,0,2013-02-17 01:53:00
7:53 PM,28.0,23.0,81,29.90,10.0,Calm,Calm,-,N/A,,Clear,0,2013-02-17 02:53:00
8:53 PM,30.9,25.0,79,29.87,10.0,SSE,5.8,-,N/A,,Clear,150,2013-02-17 03:53:00
9:53 PM,32.0,25.0,75,29.83,10.0,SE,5.8,-,N/A,,Clear,140,2013-02-17 04:53:00
10:53 PM,30.9,24.1,76,29.80,10.0,Calm,Calm,-,N/A,,Clear,0,2013-02-17 05:53:00
11:53 PM,30.9,25.0,79,29.77,10.0,ESE,3.5,-,N/A,,Clear,110,2013-02-17 06:53:00